Regional Weather Roundup
Issued by NWS Goodland, KS

Home | Current Version | Previous Version | Text Only | Print | Product List | Glossary On
Versions: 1 2 3 4 5 6 7 8 9 10 11 12 13 14 15 16 17 18 19 20 21 22 23 24 25 26 27 28 29 30 31 32 33 34 35 36 37 38 39 40 41 42 43 44 45 46 47 48 49 50
000
ASUS43 KGLD 231508
RWRGLD

GOODLAND FORECAST AREA HOURLY WEATHER ROUNDUP
NATIONAL WEATHER SERVICE GOODLAND KS
900 AM MDT THU MAR 23 2017

...OFFICIAL OBSERVATIONS...

CITY           SKY/WX    TMP DP  RH WIND       PRES   REMARKS
GOODLAND KS    CLOUDY    50  48  93 S18       29.70F FOG
HILL CITY KS   CLOUDY    58  57  97 S13       29.75F FOG
IMPERIAL NEB   SUNNY     52  46  80 S15       29.69F
MCCOOK NEB     FOG       50  50 100 E7        29.72F VSB<1/4
AKRON CO       SUNNY     54  44  69 SW6       29.69F
BURLINGTON CO  SUNNY     59  50  72 S12       29.71F
LIMON CO       CLOUDY    47  46  97 SE5       29.73F
$$

...UNOFFICIAL OBSERVATIONS...

CITY           SKY/WX    TMP DP  RH WIND       PRES   REMARKS
LENORA KS        N/A     56  32  40 S12         N/A
NORTON KS      CLOUDY    54  50  87 SE15      29.73F FOG
SHARON SPRINGS   N/A     52  51  95 S16         N/A
TRENTON NEB      N/A     55  32  41 S12         N/A
YUMA CO        FAIR      57  46  67 W3        29.68F
$$



USA.gov is the U.S. government's official web portal to all federal, state and local government web resources and services.